Time,TemperatureF,DewpointF,PressureIn,WindDirection,WindDirectionDegrees,WindSpeedMPH,WindSpeedGustMPH,Humidity,HourlyPrecipIn,Conditions,Clouds,dailyrainin,SolarRadiationWatts/m^2,SoftwareType,DateUTC
2013-02-26 00:00:00,26.5,25.0,30.01,NNE,19,5.0,7.0,94,0.00,,,0.01,0,Wunderground v.1.15,2013-02-26 06:00:00,
2013-02-26 00:10:00,26.5,25.0,30.01,NNE,19,6.0,6.0,94,0.00,,,0.01,0,Wunderground v.1.15,2013-02-26 06:10:00,
2013-02-26 00:20:00,26.4,24.9,30.00,NNE,22,6.0,6.0,94,0.00,,,0.00,0,Wunderground v.1.15,2013-02-26 06:20:00,
2013-02-26 00:30:00,26.4,24.9,30.00,NNE,26,6.0,6.0,94,0.00,,,0.00,0,Wunderground v.1.15,2013-02-26 06:30:00,
2013-02-26 00:40:00,26.4,24.9,30.00,NE,55,5.0,6.0,94,0.00,,,0.00,0,Wunderground v.1.15,2013-02-26 06:40:00,
2013-02-26 00:50:00,26.2,24.7,30.00,NNE,13,6.0,6.0,94,0.00,,,0.00,0,Wunderground v.1.15,2013-02-26 06:50:00,
2013-02-26 01:00:00,26.3,24.8,30.00,NNE,32,6.0,6.0,94,0.00,,,0.00,0,Wunderground v.1.15,2013-02-26 07:00:00,
2013-02-26 01:10:00,26.2,24.7,30.00,NE,36,6.0,6.0,94,0.00,,,0.00,0,Wunderground v.1.15,2013-02-26 07:10:00,
2013-02-26 01:20:00,26.0,24.3,30.00,NNE,30,6.0,10.0,93,0.00,,,0.00,0,Wunderground v.1.15,2013-02-26 07:20:00,
2013-02-26 01:30:00,25.9,24.2,29.99,NNE,18,6.0,6.0,93,0.00,,,0.00,0,Wunderground v.1.15,2013-02-26 07:30:00,
2013-02-26 01:40:00,25.8,24.1,29.98,North,5,7.0,7.0,93,0.00,,,0.00,0,Wunderground v.1.15,2013-02-26 07:40:00,
2013-02-26 01:50:00,25.9,24.2,29.98,NNE,24,7.0,8.0,93,0.00,,,0.00,0,Wunderground v.1.15,2013-02-26 07:50:00,
2013-02-26 02:00:00,26.0,24.3,29.97,NNE,31,7.0,7.0,93,0.00,,,0.00,0,Wunderground v.1.15,2013-02-26 08:00:00,
2013-02-26 02:10:00,26.1,24.6,29.97,NNE,15,7.0,8.0,94,0.00,,,0.00,0,Wunderground v.1.15,2013-02-26 08:10:00,
2013-02-26 02:20:00,26.2,24.7,29.97,NNE,15,7.0,8.0,94,0.00,,,0.00,0,Wunderground v.1.15,2013-02-26 08:20:00,
2013-02-26 02:30:00,26.4,24.7,29.97,NNE,17,7.0,11.0,93,0.00,,,0.00,0,Wunderground v.1.15,2013-02-26 08:30:00,
2013-02-26 02:40:00,26.5,24.8,29.97,North,11,8.0,8.0,93,0.00,,,0.00,0,Wunderground v.1.15,2013-02-26 08:40:00,
2013-02-26 02:50:00,26.4,24.7,29.96,NE,40,7.0,8.0,93,0.00,,,0.00,0,Wunderground v.1.15,2013-02-26 08:50:00,
2013-02-26 03:00:00,26.5,24.8,29.96,NE,43,7.0,9.0,93,0.00,,,0.00,0,Wunderground v.1.15,2013-02-26 09:00:00,
2013-02-26 03:10:00,26.4,24.7,29.95,NNE,26,6.0,6.0,93,0.00,,,0.00,0,Wunderground v.1.15,2013-02-26 09:10:00,
2013-02-26 03:20:00,26.2,24.5,29.94,NNE,22,6.0,8.0,93,0.00,,,0.00,0,Wunderground v.1.15,2013-02-26 09:20:00,
2013-02-26 03:30:00,26.0,24.3,29.94,NNE,15,7.0,7.0,93,0.00,,,0.00,0,Wunderground v.1.15,2013-02-26 09:30:00,
2013-02-26 03:40:00,26.0,24.3,29.95,NNE,13,6.0,6.0,93,0.00,,,0.00,0,Wunderground v.1.15,2013-02-26 09:40:00,
2013-02-26 03:50:00,26.0,24.3,29.95,NE,37,6.0,6.0,93,0.00,,,0.00,0,Wunderground v.1.15,2013-02-26 09:50:00,
2013-02-26 04:00:00,26.0,24.3,29.94,North,5,6.0,7.0,93,0.00,,,0.00,0,Wunderground v.1.15,2013-02-26 10:00:00,
2013-02-26 04:10:00,26.0,24.3,29.94,NNE,22,7.0,7.0,93,0.00,,,0.00,0,Wunderground v.1.15,2013-02-26 10:10:00,
2013-02-26 04:20:00,26.0,24.3,29.93,NNE,14,6.0,7.0,93,0.00,,,0.00,0,Wunderground v.1.15,2013-02-26 10:20:00,
2013-02-26 04:30:00,26.0,24.3,29.94,NNE,19,7.0,9.0,93,0.00,,,0.00,0,Wunderground v.1.15,2013-02-26 10:30:00,
2013-02-26 04:40:00,25.9,24.2,29.94,North,360,6.0,6.0,93,0.00,,,0.00,0,Wunderground v.1.15,2013-02-26 10:40:00,
2013-02-26 04:50:00,25.8,24.1,29.94,NE,34,6.0,6.0,93,0.00,,,0.00,0,Wunderground v.1.15,2013-02-26 10:50:00,
2013-02-26 05:00:00,25.7,24.0,29.94,North,32767,-999.0,0.0,93,0.00,,,0.00,0,Wunderground v.1.15,2013-02-26 11:00:00,
2013-02-26 05:10:00,25.6,23.9,29.94,North,32767,-999.0,0.0,93,0.00,,,0.00,0,Wunderground v.1.15,2013-02-26 11:10:00,
2013-02-26 05:20:00,25.4,23.7,29.94,NNE,24,8.0,8.0,93,0.00,,,0.00,0,Wunderground v.1.15,2013-02-26 11:20:00,
2013-02-26 05:30:00,25.3,23.6,29.93,NNE,24,7.0,7.0,93,0.00,,,0.00,0,Wunderground v.1.15,2013-02-26 11:30:00,
2013-02-26 05:40:00,25.2,23.5,29.93,NNE,24,7.0,7.0,93,0.00,,,0.00,0,Wunderground v.1.15,2013-02-26 11:40:00,
2013-02-26 05:50:00,25.1,23.4,29.93,NE,38,7.0,10.0,93,0.00,,,0.00,0,Wunderground v.1.15,2013-02-26 11:50:00,
2013-02-26 06:00:00,25.0,23.3,29.93,North,5,7.0,7.0,93,0.00,,,0.00,0,Wunderground v.1.15,2013-02-26 12:00:00,
2013-02-26 06:10:00,24.8,23.1,29.93,NNE,15,7.0,7.0,93,0.00,,,0.00,0,Wunderground v.1.15,2013-02-26 12:10:00,
2013-02-26 06:20:00,24.7,23.0,29.93,NNE,13,7.0,9.0,93,0.00,,,0.00,0,Wunderground v.1.15,2013-02-26 12:20:00,
2013-02-26 06:30:00,24.4,22.7,29.92,NNE,17,7.0,8.0,93,0.00,,,0.00,0,Wunderground v.1.15,2013-02-26 12:30:00,
2013-02-26 06:40:00,24.2,22.5,29.92,NNE,33,7.0,7.0,93,0.00,,,0.00,0,Wunderground v.1.15,2013-02-26 12:40:00,
2013-02-26 06:50:00,24.1,22.1,29.92,NNE,21,7.0,7.0,92,0.00,,,0.00,0,Wunderground v.1.15,2013-02-26 12:50:00,
2013-02-26 07:00:00,23.9,21.9,29.92,NNE,21,7.0,7.0,92,0.00,,,0.00,0,Wunderground v.1.15,2013-02-26 13:00:00,
2013-02-26 07:10:00,23.9,22.2,29.92,NNE,27,7.0,13.0,93,0.00,,,0.00,7,Wunderground v.1.15,2013-02-26 13:10:00,
2013-02-26 07:20:00,23.9,22.2,29.92,North,10,8.0,8.0,93,0.00,,,0.00,14,Wunderground v.1.15,2013-02-26 13:20:00,
2013-02-26 07:30:00,24.0,22.0,29.92,North,5,7.0,8.0,92,0.00,,,0.00,19,Wunderground v.1.15,2013-02-26 13:30:00,
2013-02-26 07:40:00,24.2,22.2,29.92,North,5,7.0,7.0,92,0.00,,,0.00,28,Wunderground v.1.15,2013-02-26 13:40:00,
2013-02-26 07:50:00,24.4,22.7,29.93,North,5,6.0,11.0,93,0.00,,,0.00,39,Wunderground v.1.15,2013-02-26 13:50:00,
2013-02-26 08:00:00,24.6,22.6,29.93,NNW,348,7.0,7.0,92,0.00,,,0.00,54,Wunderground v.1.15,2013-02-26 14:00:00,
2013-02-26 08:10:00,24.6,22.6,29.93,NNE,23,7.0,7.0,92,0.00,,,0.00,70,Wunderground v.1.15,2013-02-26 14:10:00,
2013-02-26 08:20:00,24.7,22.7,29.93,North,355,7.0,8.0,92,0.00,,,0.00,77,Wunderground v.1.15,2013-02-26 14:20:00,
2013-02-26 08:30:00,24.7,22.4,29.93,NNE,24,7.0,7.0,91,0.00,,,0.00,91,Wunderground v.1.15,2013-02-26 14:30:00,
2013-02-26 08:40:00,24.7,22.4,29.92,NNE,15,7.0,11.0,91,0.00,,,0.00,98,Wunderground v.1.15,2013-02-26 14:40:00,
2013-02-26 08:50:00,24.9,22.6,29.93,North,5,7.0,7.0,91,0.00,,,0.00,111,Wunderground v.1.15,2013-02-26 14:50:00,
2013-02-26 09:00:00,24.9,22.4,29.93,NNE,23,8.0,11.0,90,0.00,,,0.00,127,Wunderground v.1.15,2013-02-26 15:00:00,
2013-02-26 09:10:00,25.0,22.5,29.93,NE,37,8.0,10.0,90,0.00,,,0.00,141,Wunderground v.1.15,2013-02-26 15:10:00,
2013-02-26 09:20:00,25.1,22.6,29.94,North,5,8.0,8.0,90,0.00,,,0.00,139,Wunderground v.1.15,2013-02-26 15:20:00,
2013-02-26 09:30:00,25.5,22.7,29.93,NNE,19,8.0,9.0,89,0.00,,,0.00,128,Wunderground v.1.15,2013-02-26 15:30:00,
2013-02-26 09:40:00,25.5,22.7,29.93,NNE,18,8.0,8.0,89,0.00,,,0.00,128,Wunderground v.1.15,2013-02-26 15:40:00,
2013-02-26 09:50:00,25.7,23.2,29.93,NNE,20,7.0,9.0,90,0.00,,,0.00,120,Wunderground v.1.15,2013-02-26 15:50:00,
2013-02-26 10:00:00,26.2,23.1,29.93,NNE,30,8.0,8.0,88,0.00,,,0.00,132,Wunderground v.1.15,2013-02-26 16:00:00,
2013-02-26 10:10:00,26.3,23.2,29.94,NNE,26,7.0,8.0,88,0.00,,,0.00,137,Wunderground v.1.15,2013-02-26 16:10:00,
2013-02-26 10:20:00,26.4,23.3,29.93,NNE,32,7.0,8.0,88,0.00,,,0.00,144,Wunderground v.1.15,2013-02-26 16:20:00,
2013-02-26 10:30:00,26.4,23.1,29.93,NNW,344,8.0,8.0,87,0.00,,,0.00,153,Wunderground v.1.15,2013-02-26 16:30:00,
2013-02-26 10:40:00,26.6,23.3,29.93,NNE,30,7.0,8.0,87,0.00,,,0.00,158,Wunderground v.1.15,2013-02-26 16:40:00,
2013-02-26 10:50:00,26.9,23.3,29.93,NNE,13,8.0,8.0,86,0.00,,,0.00,160,Wunderground v.1.15,2013-02-26 16:50:00,
2013-02-26 11:00:00,27.1,23.5,29.93,NNE,15,8.0,8.0,86,0.00,,,0.00,155,Wunderground v.1.15,2013-02-26 17:00:00,
2013-02-26 11:10:00,27.2,23.3,29.92,North,360,8.0,9.0,85,0.00,,,0.00,162,Wunderground v.1.15,2013-02-26 17:10:00,
2013-02-26 11:20:00,27.4,23.5,29.93,NE,34,8.0,8.0,85,0.00,,,0.00,195,Wunderground v.1.15,2013-02-26 17:20:00,
2013-02-26 11:30:00,27.7,24.1,29.92,North,5,8.0,8.0,86,0.00,,,0.00,216,Wunderground v.1.15,2013-02-26 17:30:00,
2013-02-26 11:40:00,28.1,24.2,29.91,NNE,22,8.0,10.0,85,0.00,,,0.00,206,Wunderground v.1.15,2013-02-26 17:40:00,
2013-02-26 11:50:00,28.2,24.0,29.91,NNE,15,9.0,9.0,84,0.00,,,0.00,214,Wunderground v.1.15,2013-02-26 17:50:00,
2013-02-26 12:00:00,28.7,24.2,29.91,North,349,8.0,11.0,83,0.00,,,0.00,250,Wunderground v.1.15,2013-02-26 18:00:00,
2013-02-26 12:10:00,28.7,24.2,29.91,North,350,10.0,10.0,83,0.00,,,0.00,283,Wunderground v.1.15,2013-02-26 18:10:00,
2013-02-26 12:20:00,28.9,24.4,29.90,North,355,9.0,9.0,83,0.00,,,0.00,279,Wunderground v.1.15,2013-02-26 18:20:00,
2013-02-26 12:30:00,28.9,24.4,29.90,NNE,22,9.0,9.0,83,0.00,,,0.00,250,Wunderground v.1.15,2013-02-26 18:30:00,
2013-02-26 12:40:00,28.8,24.3,29.89,North,5,9.0,9.0,83,0.00,,,0.00,237,Wunderground v.1.15,2013-02-26 18:40:00,
2013-02-26 12:50:00,29.0,24.5,29.89,NNE,22,10.0,10.0,83,0.00,,,0.00,244,Wunderground v.1.15,2013-02-26 18:50:00,
2013-02-26 13:00:00,29.1,24.6,29.89,North,355,10.0,10.0,83,0.00,,,0.00,278,Wunderground v.1.15,2013-02-26 19:00:00,
2013-02-26 13:10:00,29.8,25.3,29.88,NNW,348,9.0,9.0,83,0.00,,,0.00,318,Wunderground v.1.15,2013-02-26 19:10:00,
2013-02-26 13:20:00,29.8,25.0,29.87,NNE,17,10.0,10.0,82,0.00,,,0.00,302,Wunderground v.1.15,2013-02-26 19:20:00,
2013-02-26 13:30:00,29.8,25.3,29.86,NNE,23,11.0,11.0,83,0.00,,,0.01,290,Wunderground v.1.15,2013-02-26 19:30:00,
2013-02-26 13:40:00,29.7,25.5,29.86,North,350,12.0,12.0,84,0.00,,,0.01,276,Wunderground v.1.15,2013-02-26 19:40:00,
2013-02-26 13:50:00,30.1,25.8,29.86,North,5,10.0,10.0,84,0.00,,,0.01,265,Wunderground v.1.15,2013-02-26 19:50:00,
2013-02-26 14:00:00,30.2,25.7,29.86,NNW,340,11.0,15.0,83,0.00,,,0.01,220,Wunderground v.1.15,2013-02-26 20:00:00,
2013-02-26 14:10:00,30.0,25.8,29.86,NE,44,11.0,13.0,84,0.00,,,0.01,229,Wunderground v.1.15,2013-02-26 20:10:00,
2013-02-26 14:20:00,30.5,26.0,29.86,North,360,11.0,11.0,83,0.00,,,0.01,250,Wunderground v.1.15,2013-02-26 20:20:00,
2013-02-26 14:30:00,30.9,26.3,29.86,NNE,25,11.0,13.0,83,0.00,,,0.01,301,Wunderground v.1.15,2013-02-26 20:30:00,
2013-02-26 14:40:00,31.2,26.3,29.86,North,360,11.0,11.0,82,0.00,,,0.01,276,Wunderground v.1.15,2013-02-26 20:40:00,
2013-02-26 14:50:00,31.2,26.6,29.86,NNE,14,11.0,12.0,83,0.00,,,0.01,283,Wunderground v.1.15,2013-02-26 20:50:00,
2013-02-26 15:00:00,31.0,26.4,29.86,North,11,12.0,14.0,83,0.00,,,0.01,260,Wunderground v.1.15,2013-02-26 21:00:00,
2013-02-26 15:10:00,30.8,26.2,29.86,North,5,12.0,12.0,83,0.00,,,0.01,239,Wunderground v.1.15,2013-02-26 21:10:00,
2013-02-26 15:20:00,30.6,26.3,29.86,NNW,342,11.0,15.0,84,0.00,,,0.01,216,Wunderground v.1.15,2013-02-26 21:20:00,
2013-02-26 15:30:00,30.5,26.2,29.86,NNE,19,11.0,13.0,84,0.00,,,0.01,200,Wunderground v.1.15,2013-02-26 21:30:00,
2013-02-26 15:40:00,30.3,26.0,29.86,NNE,13,11.0,11.0,84,0.00,,,0.01,179,Wunderground v.1.15,2013-02-26 21:40:00,
2013-02-26 15:50:00,30.3,26.0,29.86,NNE,19,11.0,11.0,84,0.00,,,0.01,172,Wunderground v.1.15,2013-02-26 21:50:00,
2013-02-26 16:00:00,30.0,26.0,29.87,NNE,12,11.0,13.0,85,0.00,,,0.01,167,Wunderground v.1.15,2013-02-26 22:00:00,
2013-02-26 16:10:00,29.8,25.8,29.86,North,5,11.0,13.0,85,0.00,,,0.01,141,Wunderground v.1.15,2013-02-26 22:10:00,
2013-02-26 16:20:00,29.5,25.8,29.86,North,360,10.0,10.0,86,0.00,,,0.01,90,Wunderground v.1.15,2013-02-26 22:20:00,
2013-02-26 16:30:00,29.2,25.5,29.87,North,5,11.0,11.0,86,0.00,,,0.01,86,Wunderground v.1.15,2013-02-26 22:30:00,
2013-02-26 16:40:00,29.1,25.4,29.87,North,32767,-999.0,0.0,86,0.00,,,0.01,76,Wunderground v.1.15,2013-02-26 22:40:00,
2013-02-26 16:50:00,29.0,25.3,29.87,North,32767,-999.0,0.0,86,0.00,,,0.01,70,Wunderground v.1.15,2013-02-26 22:50:00,
2013-02-26 17:00:00,28.9,25.2,29.87,North,5,11.0,11.0,86,0.00,,,0.01,58,Wunderground v.1.15,2013-02-26 23:00:00,
2013-02-26 17:10:00,28.7,25.3,29.87,NNE,14,10.0,10.0,87,0.00,,,0.01,47,Wunderground v.1.15,2013-02-26 23:10:00,
2013-02-26 17:20:00,28.6,25.2,29.88,North,360,11.0,11.0,87,0.00,,,0.01,44,Wunderground v.1.15,2013-02-26 23:20:00,
2013-02-26 17:30:00,28.4,25.0,29.88,NNE,24,11.0,11.0,87,0.00,,,0.01,32,Wunderground v.1.15,2013-02-26 23:30:00,
2013-02-26 17:40:00,28.2,24.8,29.89,North,10,10.0,10.0,87,0.00,,,0.01,25,Wunderground v.1.15,2013-02-26 23:40:00,
2013-02-26 17:50:00,28.0,24.6,29.89,North,360,11.0,11.0,87,0.00,,,0.01,12,Wunderground v.1.15,2013-02-26 23:50:00,
2013-02-26 18:00:00,27.9,24.5,29.89,NNE,16,10.0,10.0,87,0.00,,,0.01,5,Wunderground v.1.15,2013-02-27 00:00:00,
2013-02-26 18:10:00,27.9,24.8,29.90,NNE,23,11.0,11.0,88,0.00,,,0.01,0,Wunderground v.1.15,2013-02-27 00:10:00,
2013-02-26 18:20:00,27.9,24.8,29.90,North,350,10.0,11.0,88,0.00,,,0.01,0,Wunderground v.1.15,2013-02-27 00:20:00,
2013-02-26 18:30:00,27.8,24.7,29.90,North,360,10.0,13.0,88,0.00,,,0.01,0,Wunderground v.1.15,2013-02-27 00:30:00,
2013-02-26 18:40:00,27.8,24.7,29.90,NNE,29,11.0,11.0,88,0.00,,,0.01,0,Wunderground v.1.15,2013-02-27 00:40:00,
2013-02-26 18:50:00,27.7,24.6,29.90,North,11,10.0,10.0,88,0.00,,,0.01,0,Wunderground v.1.15,2013-02-27 00:50:00,
2013-02-26 19:00:00,27.7,24.6,29.91,North,350,10.0,12.0,88,0.00,,,0.01,0,Wunderground v.1.15,2013-02-27 01:00:00,
2013-02-26 19:10:00,27.7,24.6,29.91,NNE,19,11.0,11.0,88,0.00,,,0.01,0,Wunderground v.1.15,2013-02-27 01:10:00,
2013-02-26 19:20:00,27.9,24.8,29.91,North,11,10.0,10.0,88,0.00,,,0.01,0,Wunderground v.1.15,2013-02-27 01:20:00,
2013-02-26 19:30:00,27.8,24.7,29.91,North,351,11.0,13.0,88,0.00,,,0.01,0,Wunderground v.1.15,2013-02-27 01:30:00,
2013-02-26 19:40:00,27.9,24.8,29.92,North,5,10.0,11.0,88,0.00,,,0.01,0,Wunderground v.1.15,2013-02-27 01:40:00,
2013-02-26 19:50:00,28.0,24.9,29.92,North,349,10.0,10.0,88,0.00,,,0.01,0,Wunderground v.1.15,2013-02-27 01:50:00,
2013-02-26 20:00:00,28.0,24.9,29.92,North,360,9.0,9.0,88,0.00,,,0.01,0,Wunderground v.1.15,2013-02-27 02:00:00,
2013-02-26 20:10:00,28.0,24.9,29.92,North,5,9.0,9.0,88,0.00,,,0.01,0,Wunderground v.1.15,2013-02-27 02:10:00,
2013-02-26 20:20:00,27.9,24.8,29.92,NNE,13,9.0,9.0,88,0.00,,,0.01,0,Wunderground v.1.15,2013-02-27 02:20:00,
2013-02-26 20:30:00,27.7,24.6,29.92,NNW,348,9.0,9.0,88,0.00,,,0.01,0,Wunderground v.1.15,2013-02-27 02:30:00,
2013-02-26 20:40:00,27.6,24.8,29.92,North,355,9.0,9.0,89,0.00,,,0.01,0,Wunderground v.1.15,2013-02-27 02:40:00,
2013-02-26 20:50:00,27.6,24.8,29.92,North,5,10.0,10.0,89,0.00,,,0.01,0,Wunderground v.1.15,2013-02-27 02:50:00,
2013-02-26 21:00:00,27.7,24.9,29.93,NW,325,10.0,10.0,89,0.00,,,0.01,0,Wunderground v.1.15,2013-02-27 03:00:00,
2013-02-26 21:10:00,27.7,24.9,29.93,NNW,327,10.0,10.0,89,0.00,,,0.01,0,Wunderground v.1.15,2013-02-27 03:10:00,
2013-02-26 21:20:00,27.5,24.7,29.93,North,351,10.0,10.0,89,0.00,,,0.01,0,Wunderground v.1.15,2013-02-27 03:20:00,
2013-02-26 21:30:00,27.2,24.4,29.93,North,360,11.0,11.0,89,0.00,,,0.01,0,Wunderground v.1.15,2013-02-27 03:30:00,
2013-02-26 21:40:00,27.1,24.3,29.93,NNW,329,11.0,15.0,89,0.00,,,0.01,0,Wunderground v.1.15,2013-02-27 03:40:00,
2013-02-26 21:50:00,27.0,24.2,29.93,NNW,338,11.0,11.0,89,0.00,,,0.01,0,Wunderground v.1.15,2013-02-27 03:50:00,
2013-02-26 22:00:00,27.1,24.3,29.93,North,5,10.0,11.0,89,0.00,,,0.01,0,Wunderground v.1.15,2013-02-27 04:00:00,
2013-02-26 22:10:00,27.0,24.2,29.93,North,360,11.0,11.0,89,0.00,,,0.01,0,Wunderground v.1.15,2013-02-27 04:10:00,
2013-02-26 22:20:00,27.0,24.2,29.93,NNW,346,11.0,13.0,89,0.00,,,0.01,0,Wunderground v.1.15,2013-02-27 04:20:00,
2013-02-26 22:30:00,27.0,24.2,29.93,NNW,348,11.0,11.0,89,0.00,,,0.01,0,Wunderground v.1.15,2013-02-27 04:30:00,
2013-02-26 22:40:00,26.9,24.1,29.93,NW,326,10.0,12.0,89,0.00,,,0.01,0,Wunderground v.1.15,2013-02-27 04:40:00,
2013-02-26 22:50:00,26.8,24.0,29.92,NNW,327,10.0,10.0,89,0.00,,,0.01,0,Wunderground v.1.15,2013-02-27 04:50:00,
2013-02-26 23:00:00,26.7,23.9,29.92,North,355,10.0,12.0,89,0.00,,,0.01,0,Wunderground v.1.15,2013-02-27 05:00:00,
2013-02-26 23:10:00,26.5,23.7,29.92,NNW,341,11.0,12.0,89,0.00,,,0.01,0,Wunderground v.1.15,2013-02-27 05:10:00,
2013-02-26 23:20:00,26.5,23.7,29.92,NNW,333,11.0,11.0,89,0.00,,,0.01,0,Wunderground v.1.15,2013-02-27 05:20:00,
2013-02-26 23:30:00,26.5,23.7,29.92,NNW,329,11.0,13.0,89,0.00,,,0.01,0,Wunderground v.1.15,2013-02-27 05:30:00,
2013-02-26 23:40:00,26.3,23.5,29.93,NNW,335,11.0,11.0,89,0.00,,,0.01,0,Wunderground v.1.15,2013-02-27 05:40:00,
2013-02-26 23:50:00,26.1,23.0,29.92,NNW,329,10.0,11.0,88,0.00,,,0.01,0,Wunderground v.1.15,2013-02-27 05:50:00,